Flight Briefing for CPX11

Departure Arrival
Chek Lap Kok International (VHHH)
Click to view FAA NOTAMS
Ted Stevens Anchorage International Airport (PANC)
Click to view FAA NOTAMS
Departure Time Arrival Time
N/A N/A
Aircraft Distance
B747-400BCF 4414nm
Departure METAR Arrival METAR
VHHH 181530Z 06006KT 7000 FEW024 22/19 Q1016 NOSIG PANC 181453Z 13008KT 10SM FEW060 BKN100 BKN210 04/01 A2937 RMK AO2 SLP948 T00440006 51013
Suggested Route
OCEAN V3 ENVAR M750 MEXIR M750 BUNGU Y81 SYOYU Y809 SPEAR Y808 PEXEL A590 POWAL A590 PINSO A590 HAMND NEELL6


View recent IFR Routes data
Notes



Charts and Procedures

Charts for VHHH
No chart available
Charts for PANC
No chart available

Windy.com Weather Map